Content
SEND FEEDBACK

Daily
Averages
Monthly
Summary
United States of America

DRAPER, UTAH


Home > North America > United States > Utah
Elevation: 1542 meters     Latitude: 40 29N     Longitude: 111 54W

WEATHER
 
SELECT A DAY
Number of Records: 403,714;   Date Range: 1/1/95 - 10/30/14
 
SHARE

PRINT THIS DATA

[ ← Previous Day ]
WEATHER ALMANAC - 13 FEBRUARY, 2013
[ Next Day → ]
[ °F ]   °C
Weather ElementAverageHighLow
Temperature-3.4 °C1 °C (2:47 pm)-5 °C (12:35 am)
Dewpoint-5.9 °C-3 °C (7:49 pm)-7 °C (12:35 am)
Humidity82.9 %93 % (12:55 am)60 % (2:47 pm)
Barometer1027.4 hPa1029.1 hPa (12:55 am)1025.4 hPa (5:50 pm)
Wind Speed1 km/h7.4 km/h (4:15 am)
Weather ElementAverage
Visibility11.7 km
Wind DirectionNNE (32.4 °)

Weather ElementTotal
Precipitation---
Heating Degree Days20.3 (Base 18.3)
Averaged from 42 records on 13 February, 2013
WEATHER CONDITIONS BREAKOUT
WIND DIRECTION BREAKOUT
WEATHER BY HOUR - 13 FEBRUARY, 2013
[ °F ]   °C
Local TimeTemperatureDewpointHumidityBarometerVisibilityWind DirectionWind SpeedGust SpeedPrecipitationEventsConditions
12:35 AM-5 °C-7 °C86 %1028.8 hPa11.3 kmCalmOvercast
12:55 AM-5 °C-6 °C93 %1029.1 hPa11.3 kmCalmOvercast
1:15 AM-4 °C-7 °C80 %1028.8 hPa11.3 kmCalmOvercast
1:35 AM-4 °C-7 °C80 %1028.8 hPa12.9 kmCalmOvercast
1:55 AM-4 °C-6 °C86 %1028.8 hPa12.9 kmCalmOvercast
2:15 AM-4 °C-7 °C80 %1028.8 hPa12.9 kmCalmOvercast
2:35 AM-4 °C-7 °C80 %1028.4 hPa11.3 kmCalmOvercast
2:55 AM-4 °C-6 °C86 %1028.1 hPa8 kmCalmOvercast
3:15 AM-5 °C-6 °C93 %1028.1 hPa8 kmCalmOvercast
3:35 AM-5 °C-6 °C93 %1028.1 hPa9.7 kmCalmOvercast
3:55 AM-5 °C-6 °C93 %1028.1 hPa8 kmCalmOvercast
4:15 AM-5 °C-6 °C93 %1027.8 hPa8 kmSSW (210°)7.4 km/hOvercast
4:35 AM-5 °C-6 °C93 %1027.8 hPa8 kmCalmOvercast
4:55 AM-4 °C-7 °C80 %1027.4 hPa11.3 kmCalmOvercast
5:15 AM-5 °C-6 °C93 %1027.4 hPa8 kmCalmOvercast
5:35 AM-5 °C-7 °C86 %1027.8 hPa8 kmCalmOvercast
5:55 AM-5 °C-7 °C86 %1027.4 hPa8 kmCalmOvercast
6:15 AM-5 °C-7 °C86 %1027.8 hPa9.7 kmCalmOvercast
6:35 AM-5 °C-7 °C86 %1027.8 hPa9.7 kmCalmOvercast
6:47 AM-5 °C-7 °C86 %1027.8 hPa11.3 kmCalmOvercast
7:50 AM-4 °C-7 °C80 %1028.4 hPa8 kmCalmMostly Cloudy
8:50 AM-4 °C-6 °C86 %1028.8 hPa8 kmCalmMostly Cloudy
9:47 AM-4 °C-6 °C86 %1028.8 hPa8 kmCalmMostly Cloudy
10:49 AM-3 °C-6 °C80 %1028.8 hPa11.3 kmCalmScattered Clouds
11:50 AM-2 °C-6 °C74 %1028.8 hPa9.7 kmCalmHaze
12:50 PM-2 °C-6 °C74 %1027.8 hPa12.9 kmCalmHaze
1:50 PM0 °C-5 °C69 %1027.1 hPa12.9 kmCalmHaze
2:47 PM1 °C-6 °C60 %1026.4 hPa12.9 kmCalmHaze
4:05 PM-1 °C-6 °C69 %1026.4 hPa12.9 kmCalmHaze
5:50 PM-1 °C-5 °C75 %1025.4 hPa16.1 kmCalmMostly Cloudy
6:50 PM-1 °C-5 °C75 %1025.4 hPa16.1 kmCalmMostly Cloudy
7:49 PM-1 °C-3 °C86 %1025.4 hPa16.1 kmCalmMostly Cloudy
8:55 PM-2 °C-4 °C86 %1025.4 hPa16.1 kmCalmMostly Cloudy
9:15 PM-2 °C-4 °C86 %1025.7 hPa12.9 kmWest (260°)5.6 km/hOvercast
9:35 PM-2 °C-4 °C86 %1025.7 hPa14.5 kmCalmOvercast
9:55 PM-2 °C-4 °C86 %1025.4 hPa16.1 kmSSW (200°)7.4 km/hOvercast
10:15 PM-3 °C-5 °C86 %1025.4 hPa14.5 kmSSW (210°)5.6 km/hOvercast
10:35 PM-3 °C-6 °C80 %1025.4 hPa16.1 kmSSW (210°)5.6 km/hOvercast
10:55 PM-3 °C-6 °C80 %1025.4 hPa16.1 kmCalmOvercast
11:15 PM-3 °C-6 °C80 %1025.4 hPa16.1 kmCalmOvercast
11:35 PM-3 °C-6 °C80 %1025.4 hPa14.5 kmWest (270°)7.4 km/hScattered Clouds
11:55 PM-4 °C-7 °C80 %1025.4 hPa11.3 kmCalmMostly Cloudy
Hourly data recorded from KPVU, located 0 kilometers away from Draper, Utah







STORIES FROM OUR PARTNERS